Volver al catálogo

CZ-6A DEB

ActivoPO
NORAD 61103·DEBRIS·🇨🇳 China

Lanzado Aug 6, 2024 desde Taiyuan Satellite Launch Center

Loading…

Próximos Pases (próximas 24 horas)

TLE

ActualizadoSource: Space-Track

Época: Sep 13, 2026, 11:55 UTC

1 61103U 24140NV  26256.49697246  .00000502  00000-0  15297-3 0  9994
2 61103  88.9701 259.4377 0043737 350.2991   9.7361 14.39983329107360

Sigue CZ-6A DEB en tiempo real con AllMySat

Download on the App Store